Location: Advent Pentecost Church
(32.7757°N, 96.7408°W)
Time: 07:43:44
(UTC+00:00)

N. Korean satellite - Pass Details

Date: 28 October 2021
Orbit: 447 x 495 km, 97.3° (Epoch: 30 November)

Event Time Altitude Azimuth Distance (km) Brightness Sun altitude
Rises 00:04:16 0° 213° (SSW) 2,520 11.0 -5.7°
Reaches altitude 10° 00:07:49 10° 252° (WSW) 1,662 11.1 -6.4°
Maximum altitude 00:08:46 11° 267° (W) 1,615 10.9 -6.6°
Drops below altitude 10° 00:09:41 10° 282° (WNW) 1,668 10.5 -6.8°
Sets 00:13:21 0° 321° (NW) 2,571 10.6 -7.6°
